• In Uzbekistan
  • List of Countries
  • For 7 days
  • Water Temperature
  • Weather Map
  • Weather Widgets
  • user-avatar
    Login

    Hourly Weather Plymouth

    Today, 17 September, Tuesday

    Time Temperature Precipitation Wind Pressure Humidity
    00:00 +16°C° 0 mm 2 mps 766 mmHg 97%
    01:00 +16°C° 0 mm 2 mps 765 mmHg 96%
    02:00 +15°C° 0 mm 2 mps 765 mmHg 95%
    03:00 +15°C° 0 mm 2 mps 765 mmHg 94%
    04:00 +14°C° 0 mm 3 mps 766 mmHg 92%
    05:00 +14°C° 0 mm 3 mps 766 mmHg 90%
    06:00 +14°C° 0 mm 3 mps 766 mmHg 88%
    07:00 +14°C° 0 mm 4 mps 766 mmHg 85%
    08:00 +14°C° 0 mm 4 mps 767 mmHg 81%
    09:00 +15°C° 0 mm 4 mps 767 mmHg 78%
    10:00 +17°C° 0 mm 4 mps 767 mmHg 75%
    11:00 +18°C° 0 mm 4 mps 767 mmHg 71%
    12:00 +19°C° 0 mm 4 mps 767 mmHg 68%
    13:00 +19°C° 0 mm 4 mps 767 mmHg 67%
    14:00 +19°C° 0 mm 4 mps 767 mmHg 66%
    15:00 +19°C° 0 mm 4 mps 767 mmHg 66%
    16:00 +18°C° 0 mm 4 mps 767 mmHg 70%
    17:00 +17°C° 0 mm 4 mps 767 mmHg 75%
    18:00 +14°C° 0 mm 4 mps 767 mmHg 79%
    19:00 +13°C° 0 mm 4 mps 767 mmHg 82%
    20:00 +12°C° 0 mm 5 mps 768 mmHg 84%
    21:00 +10°C° 0 mm 5 mps 768 mmHg 87%
    22:00 +10°C° 0 mm 5 mps 768 mmHg 87%
    23:00 +10°C° 0 mm 5 mps 768 mmHg 87%

    Tomorrow, 18 September, Wednesday

    Time Temperature Precipitation Wind Pressure Humidity
    00:00 +9°C° 0 mm 5 mps 768 mmHg 88%
    01:00 +9°C° 0 mm 5 mps 768 mmHg 89%
    02:00 +9°C° 0 mm 5 mps 768 mmHg 90%
    03:00 +9°C° 0 mm 5 mps 768 mmHg 91%
    04:00 +8°C° 0 mm 5 mps 769 mmHg 91%
    05:00 +8°C° 0 mm 5 mps 769 mmHg 90%
    06:00 +8°C° 0 mm 5 mps 769 mmHg 90%
    07:00 +9°C° 0 mm 5 mps 769 mmHg 82%
    08:00 +12°C° 0 mm 5 mps 770 mmHg 74%
    09:00 +13°C° 0 mm 5 mps 770 mmHg 67%
    10:00 +14°C° 0 mm 5 mps 770 mmHg 63%
    11:00 +15°C° 0 mm 5 mps 770 mmHg 59%
    12:00 +16°C° 0 mm 5 mps 770 mmHg 55%
    13:00 +17°C° 0 mm 5 mps 770 mmHg 55%
    14:00 +17°C° 0 mm 5 mps 770 mmHg 55%
    15:00 +18°C° 0 mm 4 mps 770 mmHg 55%
    16:00 +17°C° 0 mm 4 mps 770 mmHg 61%
    17:00 +16°C° 0 mm 3 mps 770 mmHg 68%
    18:00 +14°C° 0 mm 3 mps 769 mmHg 74%
    19:00 +13°C° 0 mm 3 mps 770 mmHg 76%
    20:00 +12°C° 0 mm 3 mps 770 mmHg 77%
    21:00 +11°C° 0 mm 3 mps 771 mmHg 78%
    22:00 +11°C° 0 mm 3 mps 771 mmHg 78%
    23:00 +11°C° 0 mm 3 mps 770 mmHg 78%

    Day after tomorrow, 19 September, Thursday

    Time Temperature Precipitation Wind Pressure Humidity
    00:00 +11°C° 0 mm 4 mps 770 mmHg 79%
    01:00 +10°C° 0 mm 3 mps 770 mmHg 80%
    02:00 +10°C° 0 mm 3 mps 770 mmHg 81%
    03:00 +10°C° 0 mm 3 mps 770 mmHg 82%
    04:00 +10°C° 0 mm 3 mps 770 mmHg 83%
    05:00 +10°C° 0 mm 3 mps 770 mmHg 83%
    06:00 +10°C° 0 mm 3 mps 770 mmHg 83%
    07:00 +12°C° 0 mm 3 mps 770 mmHg 79%
    08:00 +14°C° 0 mm 4 mps 771 mmHg 74%
    09:00 +15°C° 0 mm 4 mps 771 mmHg 69%
    10:00 +18°C° 0 mm 4 mps 771 mmHg 67%
    11:00 +19°C° 0 mm 4 mps 771 mmHg 66%
    12:00 +20°C° 0 mm 5 mps 771 mmHg 64%
    13:00 +20°C° 0 mm 5 mps 771 mmHg 64%
    14:00 +20°C° 0 mm 4 mps 770 mmHg 64%
    15:00 +20°C° 0 mm 4 mps 770 mmHg 65%
    16:00 +18°C° 0 mm 4 mps 770 mmHg 70%
    17:00 +17°C° 0 mm 4 mps 769 mmHg 76%
    18:00 +14°C° 0 mm 3 mps 769 mmHg 82%
    19:00 +13°C° 0 mm 3 mps 769 mmHg 84%
    20:00 +12°C° 0 mm 3 mps 769 mmHg 86%
    21:00 +12°C° 0 mm 3 mps 769 mmHg 89%
    22:00 +12°C° 0 mm 4 mps 769 mmHg 90%
    23:00 +11°C° 0 mm 4 mps 769 mmHg 91%

    20 September, Friday

    Time Temperature Precipitation Wind Pressure Humidity
    00:00 +11°C° 0 mm 4 mps 768 mmHg 92%
    01:00 +12°C° 0 mm 5 mps 768 mmHg 93%
    02:00 +12°C° 0 mm 5 mps 768 mmHg 94%
    03:00 +12°C° 0 mm 5 mps 768 mmHg 95%
    04:00 +11°C° 0 mm 6 mps 767 mmHg 95%
    05:00 +11°C° 0 mm 6 mps 766 mmHg 95%
    06:00 +11°C° 0 mm 7 mps 766 mmHg 94%
    07:00 +14°C° 0 mm 7 mps 766 mmHg 88%
    08:00 +15°C° 0 mm 8 mps 766 mmHg 81%
    09:00 +16°C° 0 mm 9 mps 766 mmHg 74%
    10:00 +16°C° 0 mm 9 mps 765 mmHg 69%
    11:00 +17°C° 0 mm 9 mps 764 mmHg 65%
    12:00 +18°C° 0 mm 10 mps 764 mmHg 60%
    13:00 +17°C° 0 mm 10 mps 763 mmHg 61%
    14:00 +17°C° 0 mm 10 mps 762 mmHg 61%
    15:00 +17°C° 0 mm 10 mps 762 mmHg 62%
    16:00 +16°C° 0 mm 10 mps 761 mmHg 64%
    17:00 +16°C° 0 mm 10 mps 760 mmHg 66%
    18:00 +14°C° 0 mm 10 mps 760 mmHg 68%
    19:00 +15°C° 0 mm 9 mps 760 mmHg 68%
    20:00 +15°C° 0 mm 9 mps 759 mmHg 68%
    21:00 +16°C° 0 mm 9 mps 759 mmHg 68%
    22:00 +16°C° 0 mm 8 mps 758 mmHg 68%
    23:00 +15°C° 0 mm 8 mps 758 mmHg 68%

    21 September, Saturday

    Time Temperature Precipitation Wind Pressure Humidity
    00:00 +15°C° 0 mm 7 mps 757 mmHg 68%
    01:00 +15°C° 0 mm 7 mps 756 mmHg 71%
    02:00 +14°C° 0 mm 6 mps 756 mmHg 75%
    03:00 +13°C° 0 mm 6 mps 755 mmHg 79%
    04:00 +13°C° 0 mm 6 mps 755 mmHg 79%
    05:00 +13°C° 0 mm 6 mps 755 mmHg 79%
    06:00 +13°C° 0 mm 6 mps 754 mmHg 79%
    07:00 +15°C° 0 mm 6 mps 754 mmHg 77%
    08:00 +16°C° 0 mm 6 mps 754 mmHg 75%
    09:00 +19°C° 0 mm 6 mps 753 mmHg 72%
    10:00 +19°C° 0.2 mm 6 mps 753 mmHg 75%
    11:00 +20°C° 0.2 mm 6 mps 753 mmHg 78%
    12:00 +21°C° 0.2 mm 6 mps 753 mmHg 81%
    13:00 +20°C° 0.3 mm 6 mps 752 mmHg 84%
    14:00 +20°C° 0.3 mm 6 mps 752 mmHg 88%
    15:00 +19°C° 0.3 mm 6 mps 752 mmHg 92%
    16:00 +19°C° 0 mm 6 mps 752 mmHg 93%
    17:00 +17°C° 0 mm 6 mps 752 mmHg 93%
    18:00 +16°C° 0 mm 7 mps 752 mmHg 94%
    19:00 +16°C° 0 mm 6 mps 752 mmHg 95%
    20:00 +16°C° 0 mm 6 mps 752 mmHg 95%
    21:00 +16°C° 0 mm 6 mps 753 mmHg 95%
    22:00 +16°C° 0.4 mm 6 mps 753 mmHg 96%
    23:00 +16°C° 0.4 mm 6 mps 753 mmHg 96%

    22 September, Sunday

    Time Temperature Precipitation Wind Pressure Humidity
    00:00 +16°C° 0.4 mm 5 mps 753 mmHg 97%
    01:00 +15°C° 1.4 mm 5 mps 753 mmHg 96%
    02:00 +14°C° 1.4 mm 5 mps 753 mmHg 96%
    03:00 +13°C° 1.4 mm 4 mps 753 mmHg 95%
    04:00 +13°C° 0 mm 5 mps 753 mmHg 95%
    05:00 +14°C° 0 mm 5 mps 754 mmHg 95%
    06:00 +14°C° 0 mm 6 mps 754 mmHg 95%
    07:00 +15°C° 0.3 mm 6 mps 755 mmHg 91%
    08:00 +15°C° 0.3 mm 6 mps 755 mmHg 88%
    09:00 +16°C° 0.3 mm 7 mps 756 mmHg 84%
    10:00 +17°C° 0 mm 7 mps 756 mmHg 78%
    11:00 +17°C° 0 mm 7 mps 757 mmHg 72%
    12:00 +19°C° 0 mm 6 mps 757 mmHg 66%
    13:00 +19°C° 0 mm 6 mps 758 mmHg 67%
    14:00 +17°C° 0 mm 6 mps 758 mmHg 69%
    15:00 +17°C° 0 mm 6 mps 758 mmHg 71%
    16:00 +16°C° 0 mm 6 mps 758 mmHg 76%
    17:00 +15°C° 0 mm 5 mps 759 mmHg 81%
    18:00 +14°C° 0 mm 4 mps 759 mmHg 86%
    19:00 +13°C° 0 mm 4 mps 760 mmHg 89%
    20:00 +13°C° 0 mm 4 mps 760 mmHg 91%
    21:00 +12°C° 0 mm 3 mps 761 mmHg 94%
    22:00 +12°C° 0 mm 4 mps 760 mmHg 94%
    23:00 +12°C° 0 mm 4 mps 760 mmHg 94%
    Show more